Location: Newark
(39.9267°N, 1.8017°W)
Time: 08:17:58
(UTC+00:00)

Envisat - Pass Details

Date: 01 November 2019
Orbit: 764 x 766 km, 98.1° (Epoch: 20 November)

Event Time Altitude Azimuth Distance (km) Brightness Sun altitude
Rises 05:30:18 0° 38° (NE) 3,237 6.7 -13.0°
Reaches altitude 10° 05:34:58 10° 77° (ENE) 2,302 6.7 -12.1°
Maximum altitude 05:35:56 11° 88° (E) 2,266 6.9 -12.0°
Drops below altitude 10° 05:36:54 10° 100° (E) 2,299 7.0 -11.8°
Sets 05:41:31 0° 139° (SE) 3,217 7.1 -10.9°
